Location: Banff
(51.1667°N, 115.5667°W)
Time: 20:54:37
(UTC+00:00)

Vanguard 1 Rocket - Pass Details

Date: 02 December 2020
Orbit: 655 x 4221 km, 34.3° (Epoch: 17 January)

Event Time Altitude Azimuth Distance (km) Brightness Sun altitude
Exits shadow 09:01:40 37° 131° (SE) 4,840 10.8 -56.0°
Drops below altitude 10° 09:12:46 10° 101° (E) 5,843 11.6 -54.9°
Sets 09:16:43 0° 95° (E) 6,453 12.0 -54.5°
